Location: Mountain View
(37.3861°N, 122.0839°W)
Time: 15:39:32
(UTC-07:00)

Hubble Space Telescope - Visible Passes

Search period start: 24 April 2019 00:00
Search period end: 04 May 2019 00:00
Orbit: 537 x 540 km, 28.5° (Epoch: 24 April)

Date Brightness Start Highest point End Pass type
(mag) Time Alt. Az. Time Alt. Az. Time Alt. Az.
24 Apr 2.8 05:41:10 10° SSW 05:43:58 18° SSE 05:46:45 10° SE visible
25 Apr 2.6 05:30:28 10° SW 05:33:22 19° S 05:36:22 10° ESE visible
26 Apr 2.4 05:20:26 14° SSW 05:22:46 21° S 05:25:55 10° ESE visible
27 Apr 2.3 05:10:23 17° SSW 05:12:10 22° S 05:15:25 10° ESE visible
28 Apr 2.2 05:00:22 20° SSW 05:01:35 23° S 05:04:53 10° SE visible
29 Apr 2.1 04:50:22 23° SSW 04:51:00 23° S 04:54:20 10° SE visible
30 Apr 2.1 04:40:26 23° S 04:40:26 23° S 04:43:44 10° SE visible
01 May 2.3 04:30:34 22° SSE 04:30:34 22° SSE 04:33:06 10° SE visible
02 May 2.7 04:20:48 18° SSE 04:20:48 18° SSE 04:22:26 10° SE visible
03 May 3.1 04:11:11 12° SSE 04:11:11 12° SSE 04:11:42 10° SE visible
